Zurück zum Katalog

SL-14 R/B

AktivPO
NORAD 21423·ROCKET BODY·🇷🇺 Russia

Gestartet Jun 13, 1991 von Plesetsk Cosmodrome

Loading…

Nächste Überflüge (nächste 24 Stunden)

TLE

AktuellSource: Space-Track

Epoche: Sep 14, 2026, 08:22 UTC

1 21423U 91042B   26257.34870076  .00000277  00000-0  31995-4 0  9992
2 21423  82.4925  43.2574 0016559 346.1894  13.8865 14.81945900881010

Verfolge SL-14 R/B in Echtzeit mit AllMySat

Download on the App Store